TimeCST,TemperatureF,Dew PointF,Humidity,Sea Level PressureIn,VisibilityMPH,Wind Direction,Wind SpeedMPH,Gust SpeedMPH,PrecipitationIn,Events,Conditions,WindDirDegrees,DateUTC
12:53 AM,42.1,23.0,47,29.85,10.0,WNW,4.6,-,N/A,,Clear,300,2014-01-20 06:53:00
1:53 AM,37.9,21.9,53,29.85,10.0,NNW,3.5,-,N/A,,Clear,330,2014-01-20 07:53:00
2:53 AM,37.0,21.9,54,29.86,10.0,NNW,3.5,-,N/A,,Clear,340,2014-01-20 08:53:00
3:53 AM,30.9,21.0,67,29.88,10.0,South,3.5,-,N/A,,Clear,190,2014-01-20 09:53:00
4:53 AM,33.1,21.9,64,29.89,10.0,North,3.5,-,N/A,,Clear,360,2014-01-20 10:53:00
5:53 AM,28.9,21.0,72,29.91,10.0,Calm,Calm,-,N/A,,Clear,0,2014-01-20 11:53:00
6:53 AM,36.0,23.0,59,29.93,10.0,NE,4.6,-,N/A,,Clear,40,2014-01-20 12:53:00
7:53 AM,37.0,23.0,57,29.94,10.0,NNE,3.5,-,N/A,,Clear,30,2014-01-20 13:53:00
8:53 AM,39.0,26.1,60,29.97,10.0,North,3.5,-,N/A,,Clear,350,2014-01-20 14:53:00
9:53 AM,43.0,26.1,51,30.00,10.0,North,5.8,-,N/A,,Clear,360,2014-01-20 15:53:00
10:53 AM,46.0,27.0,47,30.01,10.0,Calm,Calm,-,N/A,,Clear,0,2014-01-20 16:53:00
11:53 AM,48.9,26.1,41,30.01,10.0,NNW,8.1,-,N/A,,Clear,340,2014-01-20 17:53:00
12:53 PM,48.9,27.0,43,29.99,10.0,NW,10.4,-,N/A,,Clear,310,2014-01-20 18:53:00
1:53 PM,51.1,27.0,39,29.99,10.0,NW,15.0,20.7,N/A,,Clear,310,2014-01-20 19:53:00
2:53 PM,48.9,27.0,43,30.00,10.0,NNW,13.8,21.9,N/A,,Clear,330,2014-01-20 20:53:00
3:53 PM,48.0,26.1,42,30.04,10.0,NNW,18.4,-,N/A,,Clear,330,2014-01-20 21:53:00
4:53 PM,48.0,21.9,36,30.05,10.0,NNW,24.2,29.9,N/A,,Scattered Clouds,330,2014-01-20 22:53:00
5:53 PM,44.1,19.9,38,30.09,10.0,NNW,16.1,25.3,N/A,,Mostly Cloudy,330,2014-01-20 23:53:00
6:53 PM,42.1,19.0,40,30.10,10.0,NW,12.7,-,N/A,,Scattered Clouds,320,2014-01-21 00:53:00
7:53 PM,37.9,19.9,48,30.13,10.0,NNW,25.3,38.0,N/A,,Partly Cloudy,340,2014-01-21 01:53:00
8:53 PM,32.0,17.1,54,30.17,10.0,NNW,28.8,39.1,N/A,,Partly Cloudy,330,2014-01-21 02:53:00
9:53 PM,26.1,10.9,53,30.21,10.0,NNW,20.7,34.5,N/A,,Clear,330,2014-01-21 03:53:00
10:29 PM,24.1,12.0,60,30.21,10.0,NNW,17.3,35.7,N/A,,Mostly Cloudy,330,2014-01-21 04:29:00
10:53 PM,24.1,12.9,62,30.25,9.0,NNW,21.9,26.5,0.00,Snow,Light Snow,340,2014-01-21 04:53:00
11:22 PM,21.9,10.9,63,30.24,10.0,NNW,24.2,34.5,0.00,,Overcast,340,2014-01-21 05:22:00
11:46 PM,19.9,10.0,65,30.26,10.0,NNW,21.9,33.4,0.00,,Overcast,340,2014-01-21 05:46:00
11:53 PM,19.9,9.0,62,30.29,9.0,NNW,21.9,36.8,0.00,Snow,Light Snow,340,2014-01-21 05:53:00